Hourly Data Report for February 06, 2004

TORONTO CITY
ONTARIO

43°40'00.000" N
79°24'00.000" W
112.50 m
6158355
71508
XTO

Download Data

Hourly Data (February 2004)
Hourly Data Report for February 6, 2004
TIME
LST
Temp Definition
°C
Dew Point Definition
°C
Rel Hum Definition
%
Precip. Amount Definition
mm

Wind Dir Definition
10's deg

Wind Spd Definition
km/h
Visibility Definition
km
Stn Press Definition
kPa
Hmdx Definition


Wind Chill Definition


Weather Definition


00:00 -1.3 -6.0 70   LegendMM LegendMM LegendMM 101.25     LegendNANA
01:00 -2.2 -3.2 93   LegendMM LegendMM LegendMM 101.05     LegendNANA
02:00 -2.1 -2.5 97   LegendMM LegendMM LegendMM 100.84     LegendNANA
03:00 -1.7 -1.9 99   LegendMM LegendMM LegendMM 100.69     LegendNANA
04:00 -1.4 -1.6 99   LegendMM LegendMM LegendMM 100.43     LegendNANA
05:00 -1.0 -1.2 99   LegendMM LegendMM LegendMM 100.28     LegendNANA
06:00 -0.8 -1.0 99   LegendMM LegendMM LegendMM 100.09     LegendNANA
07:00 -0.3 -0.6 98   LegendMM LegendMM LegendMM 99.98     LegendNANA
08:00 0.0 -0.2 99   LegendMM LegendMM LegendMM 99.81     LegendNANA
09:00 0.5 0.3 99   LegendMM LegendMM LegendMM 99.69     LegendNANA
10:00 0.9 0.9 100   LegendMM LegendMM LegendMM 99.61     LegendNANA
11:00 1.1 1.1 100   LegendMM LegendMM LegendMM 99.45     LegendNANA
12:00 1.7 1.7 100   LegendMM LegendMM LegendMM 99.43     LegendNANA
13:00 2.2 2.2 100   LegendMM LegendMM LegendMM 99.31     LegendNANA
14:00 2.6 2.6 100   LegendMM LegendMM LegendMM 99.19     LegendNANA
15:00 2.3 2.3 100   LegendMM LegendMM LegendMM 99.23     LegendNANA
16:00 2.2 2.2 100   LegendMM LegendMM LegendMM 99.23     LegendNANA
17:00 2.6 2.6 100   LegendMM LegendMM LegendMM 99.18     LegendNANA
18:00 2.7 2.6 99   LegendMM LegendMM LegendMM 99.19     LegendNANA
19:00 2.9 2.0 94   LegendMM LegendMM LegendMM 99.19     LegendNANA
20:00 2.5 1.0 90   LegendMM LegendMM LegendMM 99.20     LegendNANA
21:00 2.2 0.4 88   LegendMM LegendMM LegendMM 99.18     LegendNANA
22:00 1.5 -0.8 85   LegendMM LegendMM LegendMM 99.16     LegendNANA
23:00 1.1 -1.3 84   LegendMM LegendMM LegendMM 99.13     LegendNANA

Notes on Data Quality.

Legend

  • E = Estimated
  • M = Missing
  • NA = Not Available*
  • [empty] = Indicates an unobserved value
Date modified: